STARLINK-1695 (46329 NORAD) Tracking and Keplerian Element Data

This shows tracking and keplerian element data for the satellite.

Feedback or suggestion? Click here.




ElementValue
Catalog46329
NameSTARLINK-1695
Epoch Orbit1456
Epoch Day336.53908505
Epoch Year2020
RAAN354.9526
Inclination52.9993
Eccentricity0.0001907
Argument of Perigee24.0595
Mean Anonmoly336.0491
Mean Motion15.26220743
Decay Rate-0.00127276
L11 46329U 20062E 20336.53908505 -.00127276 00000-0 -49231-2 0 9991
L22 46329 52.9993 354.9526 0001907 24.0595 336.0491 15.26220743 14563

Live tracking and technical data element details for STARLINK-1695 (NORAD 46329). STARLINK-1695 can be tracked NOW for your location showing map with azimuth and elevation plus other details from your city location.

Track the satellite on the map from your city or location and see movement details for azimuth, elevation, latitude, longitude, range, height, and movement on the map or in text.







IsCatalogInMostPopularTable: catalog: 46329, numindb: 20
Update: records affected: 1



GetName: 46329 STARLINK-1695

Hit Count: updated at: Thu, 03 Dec 2020 07:20:08 GMT